User: anonymous   Login
Location: Unspecified
(0.0000°N, 0.0000°E)
Time: 10:25:23
(UTC+00:00)
Language:

GONETS M 12 (M22) - Orbit

View from above orbital plane
View from above orbital plane
View from above satellite
View from above satellite

Ground track
Ground track

The orbit data is extracted from the following two-line orbital elements,

1 40553U 15020B   17080.85329360 +.00000010 +00000-0 +00000-0 0  9998
2 40553 082.4934 333.5862 0014211 140.9200 219.2911 12.42893679089591
Epoch (UTC): 21 March 2017 20:28:44
Eccentricity: 0.0014211
inclination: 82.4934°
perigee height: 1483 km
apogee height: 1505 km
right ascension of ascending node: 333.5862°
argument of perigee: 140.9200°
revolutions per day: 12.42893679
mean anomaly at epoch: 219.2911°
orbit number at epoch: 8959

The dashed part of the orbit path shows where the satellite is in the earth's shadow,  

DLR